TimeCDT,TemperatureF,Dew PointF,Humidity,Sea Level PressureIn,VisibilityMPH,Wind Direction,Wind SpeedMPH,Gust SpeedMPH,PrecipitationIn,Events,Conditions,WindDirDegrees,DateUTC
12:53 AM,46.0,39.9,79,30.17,10.0,Calm,Calm,-,N/A,,Clear,0,2012-09-09 05:53:00
1:53 AM,43.0,39.0,86,30.18,10.0,NW,4.6,-,N/A,,Clear,320,2012-09-09 06:53:00
2:53 AM,43.0,37.9,82,30.18,10.0,NNW,5.8,-,N/A,,Clear,340,2012-09-09 07:53:00
3:53 AM,43.0,39.0,86,30.19,10.0,NW,3.5,-,N/A,,Clear,310,2012-09-09 08:53:00
4:53 AM,39.0,37.9,96,30.20,10.0,Calm,Calm,-,N/A,,Clear,0,2012-09-09 09:53:00
5:53 AM,39.9,37.0,89,30.22,10.0,Calm,Calm,-,N/A,,Clear,0,2012-09-09 10:53:00
6:53 AM,37.0,36.0,96,30.24,2.0,Calm,Calm,-,N/A,,Clear,0,2012-09-09 11:53:00
7:02 AM,35.6,35.6,100,30.22,10.0,Calm,Calm,-,N/A,,Clear,0,2012-09-09 12:02:00
7:53 AM,42.1,39.9,92,30.25,10.0,Calm,Calm,-,N/A,,Clear,0,2012-09-09 12:53:00
8:53 AM,50.0,44.1,80,30.24,10.0,Calm,Calm,-,N/A,,Clear,0,2012-09-09 13:53:00
9:53 AM,55.9,46.0,69,30.24,10.0,Calm,Calm,-,N/A,,Clear,0,2012-09-09 14:53:00
10:53 AM,61.0,45.0,56,30.22,10.0,Calm,Calm,-,N/A,,Clear,0,2012-09-09 15:53:00
11:53 AM,63.0,43.0,48,30.21,10.0,West,4.6,-,N/A,,Clear,260,2012-09-09 16:53:00
12:53 PM,64.9,43.0,45,30.19,10.0,South,6.9,-,N/A,,Clear,180,2012-09-09 17:53:00
1:53 PM,68.0,42.1,39,30.16,10.0,Variable,4.6,-,N/A,,Clear,0,2012-09-09 18:53:00
2:53 PM,70.0,41.0,35,30.12,10.0,South,6.9,-,N/A,,Clear,180,2012-09-09 19:53:00
3:53 PM,73.0,37.9,28,30.09,10.0,SSW,8.1,16.1,N/A,,Clear,210,2012-09-09 20:53:00
4:53 PM,75.0,39.0,27,30.06,10.0,SSW,11.5,-,N/A,,Clear,200,2012-09-09 21:53:00
5:53 PM,73.9,36.0,25,30.04,10.0,South,9.2,18.4,N/A,,Clear,170,2012-09-09 22:53:00
6:53 PM,72.0,36.0,27,30.01,10.0,South,11.5,-,N/A,,Clear,170,2012-09-09 23:53:00
7:53 PM,69.1,37.0,31,30.00,10.0,SSE,8.1,-,N/A,,Clear,160,2012-09-10 00:53:00
8:53 PM,66.9,39.0,36,29.99,10.0,SSE,10.4,-,N/A,,Clear,150,2012-09-10 01:53:00
9:53 PM,64.9,39.0,39,29.98,10.0,SSE,10.4,-,N/A,,Clear,150,2012-09-10 02:53:00
10:53 PM,64.0,39.9,41,29.96,10.0,SSE,12.7,-,N/A,,Clear,160,2012-09-10 03:53:00
11:53 PM,62.1,41.0,46,29.95,10.0,SSE,13.8,-,N/A,,Clear,160,2012-09-10 04:53:00